Time,TemperatureF,DewpointF,PressureIn,WindDirection,WindDirectionDegrees,WindSpeedMPH,WindSpeedGustMPH,Humidity,HourlyPrecipIn,Conditions,Clouds,dailyrainin,SoftwareType,DateUTC
2013-04-26 00:01:00,61.0,40.6,28.59,East,90,8.0,14.0,47,0.00,,,0.00,meteohub,2013-04-26 05:01:00,
2013-04-26 00:06:00,61.0,40.6,28.59,East,90,16.0,16.0,47,0.00,,,0.00,meteohub,2013-04-26 05:06:00,
2013-04-26 00:11:00,60.8,40.5,28.59,East,90,9.0,16.0,47,0.00,,,0.00,meteohub,2013-04-26 05:11:00,
2013-04-26 00:16:00,60.6,40.8,28.59,East,90,10.0,16.0,48,0.00,,,0.00,meteohub,2013-04-26 05:16:00,
2013-04-26 00:21:00,60.6,40.8,28.59,East,90,7.0,16.0,48,0.00,,,0.00,meteohub,2013-04-26 05:21:00,
2013-04-26 00:27:00,60.6,40.8,28.59,East,90,12.0,14.0,48,0.00,,,0.00,meteohub,2013-04-26 05:27:00,
2013-04-26 00:32:00,60.4,41.2,28.58,East,90,10.0,14.0,49,0.00,,,0.00,meteohub,2013-04-26 05:32:00,
2013-04-26 00:37:00,60.4,41.2,28.58,SE,135,17.0,17.0,49,0.00,,,0.00,meteohub,2013-04-26 05:37:00,
2013-04-26 00:42:00,60.3,41.0,28.58,SE,135,12.0,17.0,49,0.00,,,0.00,meteohub,2013-04-26 05:42:00,
2013-04-26 00:47:00,60.1,41.4,28.58,East,90,11.0,17.0,50,0.00,,,0.00,meteohub,2013-04-26 05:47:00,
2013-04-26 00:52:00,60.3,41.5,28.58,East,90,10.0,17.0,50,0.00,,,0.00,meteohub,2013-04-26 05:52:00,
2013-04-26 00:57:00,60.3,41.5,28.58,East,90,10.0,15.0,50,0.00,,,0.00,meteohub,2013-04-26 05:57:00,
2013-04-26 01:02:00,60.4,41.7,28.58,East,90,13.0,15.0,50,0.00,,,0.00,meteohub,2013-04-26 06:02:00,
2013-04-26 01:07:00,60.8,42.1,28.58,ESE,113,8.0,15.0,50,0.00,,,0.00,meteohub,2013-04-26 06:07:00,
2013-04-26 01:12:00,61.2,41.9,28.58,East,90,13.0,13.0,49,0.00,,,0.00,meteohub,2013-04-26 06:12:00,
2013-04-26 01:17:00,61.3,42.1,28.58,East,90,11.0,16.0,49,0.00,,,0.00,meteohub,2013-04-26 06:17:00,
2013-04-26 01:22:00,61.5,42.3,28.58,SE,135,15.0,16.0,49,0.00,,,0.00,meteohub,2013-04-26 06:22:00,
2013-04-26 01:27:00,61.7,41.9,28.57,SE,135,11.0,15.0,48,0.00,,,0.00,meteohub,2013-04-26 06:27:00,
2013-04-26 01:32:00,61.9,42.4,28.57,East,90,14.0,16.0,49,0.00,,,0.00,meteohub,2013-04-26 06:32:00,
2013-04-26 01:37:00,61.9,42.4,28.57,East,90,12.0,17.0,49,0.00,,,0.00,meteohub,2013-04-26 06:37:00,
2013-04-26 01:42:00,61.7,42.3,28.57,East,90,11.0,17.0,49,0.00,,,0.00,meteohub,2013-04-26 06:42:00,
2013-04-26 01:47:00,62.1,42.1,28.57,ESE,113,12.0,17.0,48,0.00,,,0.00,meteohub,2013-04-26 06:47:00,
2013-04-26 01:52:00,62.2,41.7,28.56,East,90,10.0,15.0,47,0.00,,,0.00,meteohub,2013-04-26 06:52:00,
2013-04-26 01:57:00,62.1,41.5,28.56,SE,135,11.0,15.0,47,0.00,,,0.00,meteohub,2013-04-26 06:57:00,
2013-04-26 02:02:00,62.4,41.9,28.56,SE,135,11.0,15.0,47,0.00,,,0.00,meteohub,2013-04-26 07:02:00,
2013-04-26 02:07:00,62.2,42.3,28.56,East,90,11.0,15.0,48,0.00,,,0.00,meteohub,2013-04-26 07:07:00,
2013-04-26 02:12:00,62.1,42.1,28.56,East,90,11.0,15.0,48,0.00,,,0.00,meteohub,2013-04-26 07:12:00,
2013-04-26 02:17:00,62.1,42.1,28.55,East,90,11.0,14.0,48,0.00,,,0.00,meteohub,2013-04-26 07:17:00,
2013-04-26 02:22:00,62.1,42.1,28.55,SE,135,11.0,14.0,48,0.00,,,0.00,meteohub,2013-04-26 07:22:00,
2013-04-26 02:27:00,62.1,42.6,28.55,SE,135,12.0,14.0,49,0.00,,,0.00,meteohub,2013-04-26 07:27:00,
2013-04-26 02:32:00,62.2,42.8,28.55,SE,135,13.0,14.0,49,0.00,,,0.00,meteohub,2013-04-26 07:32:00,
2013-04-26 02:37:00,61.9,42.4,28.54,SE,135,11.0,13.0,49,0.00,,,0.00,meteohub,2013-04-26 07:37:00,
2013-04-26 02:42:00,61.7,42.3,28.54,East,90,10.0,13.0,49,0.00,,,0.00,meteohub,2013-04-26 07:42:00,
2013-04-26 02:47:00,61.7,42.8,28.54,East,90,11.0,13.0,50,0.00,,,0.00,meteohub,2013-04-26 07:47:00,
2013-04-26 02:52:00,61.5,42.6,28.54,SE,135,8.0,12.0,50,0.00,,,0.00,meteohub,2013-04-26 07:52:00,
2013-04-26 02:57:00,61.7,43.3,28.53,East,90,8.0,12.0,51,0.00,,,0.00,meteohub,2013-04-26 07:57:00,
2013-04-26 03:02:00,61.5,43.2,28.53,SE,135,8.0,13.0,51,0.00,,,0.00,meteohub,2013-04-26 08:02:00,
2013-04-26 03:07:00,61.3,43.0,28.53,East,90,7.0,13.0,51,0.00,,,0.00,meteohub,2013-04-26 08:07:00,
2013-04-26 03:12:00,61.3,43.0,28.54,SE,135,5.0,11.0,51,0.00,,,0.00,meteohub,2013-04-26 08:12:00,
2013-04-26 03:17:00,61.3,43.5,28.56,SE,135,4.0,11.0,52,0.00,,,0.00,meteohub,2013-04-26 08:17:00,
2013-04-26 03:22:00,61.2,43.3,28.56,SE,135,1.0,11.0,52,0.00,,,0.00,meteohub,2013-04-26 08:22:00,
2013-04-26 03:27:00,61.2,43.3,28.57,East,90,5.0,9.0,52,0.00,,,0.00,meteohub,2013-04-26 08:27:00,
2013-04-26 03:32:00,61.2,43.9,28.55,SE,135,11.0,11.0,53,0.00,,,0.00,meteohub,2013-04-26 08:32:00,
2013-04-26 03:37:00,61.0,43.7,28.54,SE,135,14.0,14.0,53,0.00,,,0.00,meteohub,2013-04-26 08:37:00,
2013-04-26 03:42:00,60.8,43.5,28.53,South,180,14.0,14.0,53,0.00,,,0.00,meteohub,2013-04-26 08:42:00,
2013-04-26 03:47:00,61.2,43.9,28.55,East,90,8.0,17.0,53,0.00,,,0.00,meteohub,2013-04-26 08:47:00,
2013-04-26 03:52:00,61.0,43.7,28.56,NE,45,9.0,17.0,53,0.00,,,0.00,meteohub,2013-04-26 08:52:00,
2013-04-26 03:57:00,61.0,44.2,28.51,East,90,13.0,17.0,54,0.00,,,0.00,meteohub,2013-04-26 08:57:00,
2013-04-26 04:02:00,60.8,44.1,28.52,SE,135,12.0,16.0,54,0.00,,,0.00,meteohub,2013-04-26 09:02:00,
2013-04-26 04:07:00,60.3,45.5,28.51,NE,45,11.0,16.0,58,0.00,,,0.00,meteohub,2013-04-26 09:07:00,
2013-04-26 04:12:00,60.1,45.7,28.52,East,90,10.0,16.0,59,0.00,,,0.00,meteohub,2013-04-26 09:12:00,
2013-04-26 04:17:00,59.9,45.5,28.52,SE,135,8.0,16.0,59,0.00,,,0.00,meteohub,2013-04-26 09:17:00,
2013-04-26 04:22:00,60.3,45.9,28.53,SE,135,9.0,16.0,59,0.00,,,0.00,meteohub,2013-04-26 09:22:00,
2013-04-26 04:27:00,60.3,45.5,28.53,SE,135,6.0,15.0,58,0.00,,,0.00,meteohub,2013-04-26 09:27:00,
2013-04-26 04:32:00,60.3,45.5,28.53,East,90,10.0,12.0,58,0.00,,,0.00,meteohub,2013-04-26 09:32:00,
2013-04-26 04:37:00,60.4,45.7,28.53,SSE,158,8.0,11.0,58,0.00,,,0.00,meteohub,2013-04-26 09:37:00,
2013-04-26 04:42:00,60.6,45.3,28.52,SE,135,14.0,14.0,57,0.00,,,0.00,meteohub,2013-04-26 09:42:00,
2013-04-26 04:47:00,61.0,45.1,28.52,ESE,113,11.0,14.0,56,0.00,,,0.00,meteohub,2013-04-26 09:47:00,
2013-04-26 04:53:00,60.6,45.3,28.53,East,90,6.0,14.0,57,0.00,,,0.00,meteohub,2013-04-26 09:53:00,
2013-04-26 04:58:00,61.2,45.9,28.53,SE,135,6.0,14.0,57,0.00,,,0.00,meteohub,2013-04-26 09:58:00,
2013-04-26 05:03:00,60.6,45.3,28.53,SE,135,7.0,13.0,57,0.00,,,0.00,meteohub,2013-04-26 10:03:00,
2013-04-26 05:08:00,60.6,45.7,28.54,SE,135,7.0,13.0,58,0.00,,,0.00,meteohub,2013-04-26 10:08:00,
2013-04-26 05:13:00,60.8,45.9,28.54,East,90,6.0,12.0,58,0.00,,,0.00,meteohub,2013-04-26 10:13:00,
2013-04-26 05:18:00,60.8,45.9,28.53,SE,135,7.0,12.0,58,0.00,,,0.00,meteohub,2013-04-26 10:18:00,
2013-04-26 05:23:00,61.2,45.9,28.53,SE,135,9.0,11.0,57,0.00,,,0.00,meteohub,2013-04-26 10:23:00,
2013-04-26 05:28:00,61.5,46.2,28.53,South,180,13.0,13.0,57,0.00,,,0.00,meteohub,2013-04-26 10:28:00,
2013-04-26 05:33:00,61.7,46.4,28.53,South,180,11.0,15.0,57,0.00,,,0.00,meteohub,2013-04-26 10:33:00,
2013-04-26 05:38:00,61.7,46.8,28.53,South,180,7.0,15.0,58,0.00,,,0.00,meteohub,2013-04-26 10:38:00,
2013-04-26 05:43:00,61.7,46.8,28.53,East,90,6.0,15.0,58,0.00,,,0.00,meteohub,2013-04-26 10:43:00,
2013-04-26 05:48:00,61.9,46.9,28.53,SE,135,11.0,15.0,58,0.00,,,0.00,meteohub,2013-04-26 10:48:00,
2013-04-26 05:53:00,61.7,46.4,28.53,SE,135,8.0,13.0,57,0.00,,,0.00,meteohub,2013-04-26 10:53:00,
2013-04-26 05:58:00,61.9,46.4,28.54,SE,135,8.0,11.0,57,0.00,,,0.00,meteohub,2013-04-26 10:58:00,
2013-04-26 06:03:00,61.9,46.4,28.53,SE,135,10.0,12.0,57,0.00,,,0.00,meteohub,2013-04-26 11:03:00,
2013-04-26 06:08:00,62.1,46.6,28.53,East,90,10.0,15.0,57,0.00,,,0.00,meteohub,2013-04-26 11:08:00,
2013-04-26 06:13:00,61.9,46.0,28.54,SE,135,11.0,15.0,56,0.00,,,0.00,meteohub,2013-04-26 11:13:00,
2013-04-26 06:18:00,62.2,46.4,28.53,South,180,10.0,15.0,56,0.00,,,0.00,meteohub,2013-04-26 11:18:00,
2013-04-26 06:23:00,62.1,46.2,28.53,East,90,8.0,12.0,56,0.00,,,0.00,meteohub,2013-04-26 11:23:00,
2013-04-26 06:28:00,62.1,46.2,28.53,East,90,8.0,11.0,56,0.00,,,0.00,meteohub,2013-04-26 11:28:00,
2013-04-26 06:33:00,61.3,47.8,28.54,East,90,6.0,11.0,61,0.00,,,0.00,meteohub,2013-04-26 11:33:00,
2013-04-26 06:38:00,60.1,48.2,28.54,East,90,8.0,10.0,65,0.01,,,0.01,meteohub,2013-04-26 11:38:00,
2013-04-26 06:43:00,59.4,48.7,28.54,East,90,7.0,10.0,68,0.01,,,0.01,meteohub,2013-04-26 11:43:00,
2013-04-26 06:48:00,59.4,48.7,28.53,SE,135,9.0,10.0,68,0.01,,,0.01,meteohub,2013-04-26 11:48:00,
2013-04-26 06:53:00,59.4,48.7,28.53,East,90,9.0,11.0,68,0.01,,,0.01,meteohub,2013-04-26 11:53:00,
2013-04-26 06:58:00,59.4,48.4,28.53,East,90,8.0,11.0,67,0.01,,,0.01,meteohub,2013-04-26 11:58:00,
2013-04-26 07:03:00,59.4,48.4,28.53,SE,135,6.0,11.0,67,0.01,,,0.01,meteohub,2013-04-26 12:03:00,
2013-04-26 07:08:00,59.0,48.0,28.54,East,90,13.0,13.0,67,0.01,,,0.01,meteohub,2013-04-26 12:08:00,
2013-04-26 07:13:00,59.2,48.6,28.54,SE,135,6.0,12.0,68,0.01,,,0.01,meteohub,2013-04-26 12:13:00,
2013-04-26 07:18:00,59.0,48.4,28.54,SE,135,8.0,13.0,68,0.01,,,0.01,meteohub,2013-04-26 12:18:00,
2013-04-26 07:23:00,59.2,48.6,28.54,SE,135,5.0,13.0,68,0.01,,,0.01,meteohub,2013-04-26 12:23:00,
2013-04-26 07:28:00,59.4,48.7,28.54,East,90,11.0,11.0,68,0.01,,,0.01,meteohub,2013-04-26 12:28:00,
2013-04-26 07:33:00,59.5,48.6,28.55,East,90,7.0,12.0,67,0.01,,,0.01,meteohub,2013-04-26 12:33:00,
2013-04-26 07:38:00,59.4,48.4,28.55,West,270,6.0,12.0,67,0.00,,,0.01,meteohub,2013-04-26 12:38:00,
2013-04-26 07:43:00,59.5,48.9,28.56,ESE,113,7.0,12.0,68,0.00,,,0.01,meteohub,2013-04-26 12:43:00,
2013-04-26 07:48:00,59.5,48.9,28.56,East,90,8.0,11.0,68,0.00,,,0.01,meteohub,2013-04-26 12:48:00,
2013-04-26 07:53:00,59.5,48.9,28.57,East,90,5.0,11.0,68,0.00,,,0.01,meteohub,2013-04-26 12:53:00,
2013-04-26 07:58:00,59.4,49.1,28.57,East,90,4.0,8.0,69,0.00,,,0.01,meteohub,2013-04-26 12:58:00,
2013-04-26 08:03:00,59.7,49.5,28.57,SE,135,6.0,8.0,69,0.00,,,0.01,meteohub,2013-04-26 13:03:00,
2013-04-26 08:08:00,59.7,49.5,28.57,SE,135,7.0,8.0,69,0.00,,,0.01,meteohub,2013-04-26 13:08:00,
2013-04-26 08:13:00,59.5,49.8,28.57,East,90,5.0,8.0,70,0.00,,,0.01,meteohub,2013-04-26 13:13:00,
2013-04-26 08:18:00,59.5,49.8,28.58,East,90,5.0,8.0,70,0.00,,,0.01,meteohub,2013-04-26 13:18:00,
2013-04-26 08:23:00,59.7,50.0,28.58,East,90,4.0,8.0,70,0.00,,,0.01,meteohub,2013-04-26 13:23:00,
2013-04-26 08:28:00,59.5,50.2,28.58,SE,135,4.0,8.0,71,0.00,,,0.01,meteohub,2013-04-26 13:28:00,
2013-04-26 08:33:00,59.5,50.5,28.58,SE,135,8.0,8.0,72,0.00,,,0.01,meteohub,2013-04-26 13:33:00,
2013-04-26 08:38:00,59.5,50.5,28.58,East,90,8.0,8.0,72,0.00,,,0.01,meteohub,2013-04-26 13:38:00,
2013-04-26 08:43:00,59.5,50.9,28.58,East,90,11.0,11.0,73,0.00,,,0.01,meteohub,2013-04-26 13:43:00,
2013-04-26 08:48:00,59.9,51.3,28.58,NE,45,6.0,9.0,73,0.00,,,0.01,meteohub,2013-04-26 13:48:00,
2013-04-26 08:53:00,59.7,51.1,28.58,East,90,8.0,11.0,73,0.00,,,0.01,meteohub,2013-04-26 13:53:00,
2013-04-26 08:58:00,59.7,51.1,28.57,ESE,113,4.0,11.0,73,0.00,,,0.01,meteohub,2013-04-26 13:58:00,
2013-04-26 09:03:00,59.9,51.3,28.58,East,90,8.0,11.0,73,0.00,,,0.01,meteohub,2013-04-26 14:03:00,
2013-04-26 09:08:00,59.9,51.3,28.58,East,90,8.0,11.0,73,0.00,,,0.01,meteohub,2013-04-26 14:08:00,
2013-04-26 09:13:00,59.9,51.3,28.58,SE,135,13.0,13.0,73,0.00,,,0.01,meteohub,2013-04-26 14:13:00,
2013-04-26 09:18:00,59.7,51.1,28.58,East,90,13.0,13.0,73,0.00,,,0.01,meteohub,2013-04-26 14:18:00,
2013-04-26 09:23:00,59.5,51.3,28.58,SE,135,11.0,13.0,74,0.00,,,0.01,meteohub,2013-04-26 14:23:00,
2013-04-26 09:28:00,59.5,51.3,28.58,East,90,16.0,16.0,74,0.00,,,0.01,meteohub,2013-04-26 14:28:00,
2013-04-26 09:33:00,59.5,51.3,28.58,East,90,8.0,17.0,74,0.00,,,0.01,meteohub,2013-04-26 14:33:00,
2013-04-26 09:38:00,59.7,52.2,28.57,East,90,7.0,17.0,76,0.00,,,0.01,meteohub,2013-04-26 14:38:00,
2013-04-26 09:44:00,59.7,52.5,28.57,SE,135,8.0,17.0,77,0.00,,,0.01,meteohub,2013-04-26 14:44:00,
2013-04-26 09:49:00,59.7,52.9,28.57,SE,135,10.0,15.0,78,0.00,,,0.01,meteohub,2013-04-26 14:49:00,
2013-04-26 09:54:00,60.1,53.2,28.57,SSE,158,6.0,15.0,78,0.00,,,0.01,meteohub,2013-04-26 14:54:00,
2013-04-26 09:59:00,60.6,53.1,28.56,East,90,9.0,15.0,76,0.00,,,0.01,meteohub,2013-04-26 14:59:00,
2013-04-26 10:04:00,60.4,52.9,28.57,SE,135,13.0,15.0,76,0.00,,,0.01,meteohub,2013-04-26 15:04:00,
2013-04-26 10:09:00,60.3,52.7,28.56,SE,135,17.0,17.0,76,0.00,,,0.01,meteohub,2013-04-26 15:09:00,
2013-04-26 10:14:00,60.1,52.9,28.56,SE,135,17.0,17.0,77,0.00,,,0.01,meteohub,2013-04-26 15:14:00,
2013-04-26 10:19:00,60.4,53.2,28.56,SSE,158,10.0,17.0,77,0.01,,,0.02,meteohub,2013-04-26 15:19:00,
2013-04-26 10:24:00,60.4,52.9,28.56,SE,135,9.0,17.0,76,0.01,,,0.02,meteohub,2013-04-26 15:24:00,
2013-04-26 10:29:00,60.8,53.2,28.56,East,90,13.0,17.0,76,0.01,,,0.02,meteohub,2013-04-26 15:29:00,
2013-04-26 10:34:00,61.0,53.4,28.56,SE,135,9.0,15.0,76,0.01,,,0.02,meteohub,2013-04-26 15:34:00,
2013-04-26 10:39:00,61.2,53.2,28.56,SE,135,17.0,17.0,75,0.01,,,0.02,meteohub,2013-04-26 15:39:00,
2013-04-26 10:44:00,61.5,53.2,28.56,SE,135,13.0,15.0,74,0.01,,,0.02,meteohub,2013-04-26 15:44:00,
2013-04-26 10:49:00,61.9,53.1,28.55,SE,135,13.0,17.0,73,0.01,,,0.02,meteohub,2013-04-26 15:49:00,
2013-04-26 10:54:00,62.2,53.1,28.55,East,90,11.0,17.0,72,0.01,,,0.02,meteohub,2013-04-26 15:54:00,
2013-04-26 10:59:00,62.2,52.3,28.56,SE,135,17.0,19.0,70,0.01,,,0.02,meteohub,2013-04-26 15:59:00,
2013-04-26 11:04:00,62.6,53.1,28.55,NE,45,17.0,19.0,71,0.01,,,0.02,meteohub,2013-04-26 16:04:00,
2013-04-26 11:09:00,62.8,52.9,28.55,SE,135,15.0,19.0,70,0.01,,,0.02,meteohub,2013-04-26 16:09:00,
2013-04-26 11:14:00,63.0,53.1,28.55,East,90,11.0,18.0,70,0.01,,,0.02,meteohub,2013-04-26 16:14:00,
2013-04-26 11:19:00,63.5,52.7,28.55,SE,135,15.0,18.0,68,0.00,,,0.02,meteohub,2013-04-26 16:19:00,
2013-04-26 11:24:00,63.5,52.7,28.55,East,90,16.0,18.0,68,0.00,,,0.02,meteohub,2013-04-26 16:24:00,
2013-04-26 11:29:00,64.2,53.1,28.55,SE,135,12.0,19.0,67,0.00,,,0.02,meteohub,2013-04-26 16:29:00,
2013-04-26 11:34:00,64.0,52.9,28.55,SSE,158,14.0,19.0,67,0.00,,,0.02,meteohub,2013-04-26 16:34:00,
2013-04-26 11:39:00,64.8,53.6,28.55,SE,135,17.0,19.0,67,0.00,,,0.02,meteohub,2013-04-26 16:39:00,
2013-04-26 11:44:00,65.8,54.1,28.55,East,90,14.0,18.0,66,0.00,,,0.02,meteohub,2013-04-26 16:44:00,
2013-04-26 11:49:00,66.6,54.0,28.55,South,180,11.0,18.0,64,0.00,,,0.02,meteohub,2013-04-26 16:49:00,
2013-04-26 11:54:00,66.7,53.8,28.55,NE,45,11.0,17.0,63,0.00,,,0.02,meteohub,2013-04-26 16:54:00,
2013-04-26 11:59:00,66.7,53.8,28.54,SE,135,21.0,21.0,63,0.00,,,0.02,meteohub,2013-04-26 16:59:00,
2013-04-26 12:04:00,66.2,54.1,28.54,SE,135,12.0,15.0,65,0.00,,,0.02,meteohub,2013-04-26 17:04:00,
2013-04-26 12:09:00,66.7,54.7,28.53,SSE,158,12.0,21.0,65,0.00,,,0.02,meteohub,2013-04-26 17:09:00,
2013-04-26 12:14:00,67.3,54.3,28.53,East,90,15.0,21.0,63,0.00,,,0.02,meteohub,2013-04-26 17:14:00,
2013-04-26 12:19:00,68.0,54.9,28.53,East,90,13.0,16.0,63,0.00,,,0.02,meteohub,2013-04-26 17:19:00,
2013-04-26 12:24:00,67.6,54.1,28.53,SE,135,15.0,18.0,62,0.00,,,0.02,meteohub,2013-04-26 17:24:00,
2013-04-26 12:29:00,66.9,54.9,28.53,SE,135,13.0,18.0,65,0.00,,,0.02,meteohub,2013-04-26 17:29:00,
2013-04-26 12:34:00,67.8,55.2,28.52,SW,225,12.0,17.0,64,0.00,,,0.02,meteohub,2013-04-26 17:34:00,
2013-04-26 12:39:00,68.5,54.5,28.52,SE,135,15.0,18.0,61,0.00,,,0.02,meteohub,2013-04-26 17:39:00,
2013-04-26 12:44:00,68.7,54.7,28.52,SW,225,15.0,18.0,61,0.00,,,0.02,meteohub,2013-04-26 17:44:00,
2013-04-26 12:49:00,69.6,55.0,28.52,WNW,293,16.0,18.0,60,0.00,,,0.02,meteohub,2013-04-26 17:49:00,
2013-04-26 12:54:00,70.5,55.0,28.52,SE,135,14.0,17.0,58,0.00,,,0.02,meteohub,2013-04-26 17:54:00,
2013-04-26 12:59:00,70.5,55.0,28.51,South,180,13.0,17.0,58,0.00,,,0.02,meteohub,2013-04-26 17:59:00,
2013-04-26 13:04:00,70.7,54.7,28.51,East,90,17.0,18.0,57,0.00,,,0.02,meteohub,2013-04-26 18:04:00,
2013-04-26 13:10:00,70.5,54.1,28.51,East,90,8.0,18.0,56,0.00,,,0.02,meteohub,2013-04-26 18:10:00,
2013-04-26 13:15:00,71.1,54.5,28.51,SE,135,9.0,17.0,56,0.00,,,0.02,meteohub,2013-04-26 18:15:00,
2013-04-26 13:20:00,71.1,54.1,28.51,SE,135,13.0,17.0,55,0.00,,,0.02,meteohub,2013-04-26 18:20:00,
2013-04-26 13:25:00,71.6,54.1,28.50,East,90,13.0,15.0,54,0.00,,,0.02,meteohub,2013-04-26 18:25:00,
2013-04-26 13:30:00,72.0,54.3,28.50,South,180,11.0,15.0,54,0.00,,,0.02,meteohub,2013-04-26 18:30:00,
2013-04-26 13:35:00,73.0,54.3,28.50,South,180,14.0,17.0,52,0.00,,,0.02,meteohub,2013-04-26 18:35:00,
2013-04-26 13:40:00,72.5,54.3,28.50,SE,135,16.0,17.0,53,0.00,,,0.02,meteohub,2013-04-26 18:40:00,
2013-04-26 13:45:00,72.3,54.7,28.49,SE,135,10.0,17.0,54,0.00,,,0.02,meteohub,2013-04-26 18:45:00,
2013-04-26 13:50:00,73.4,54.7,28.49,South,180,9.0,21.0,52,0.00,,,0.02,meteohub,2013-04-26 18:50:00,
2013-04-26 13:55:00,73.9,54.7,28.49,South,180,9.0,21.0,51,0.00,,,0.02,meteohub,2013-04-26 18:55:00,
2013-04-26 14:00:00,74.8,55.0,28.49,South,180,9.0,17.0,50,0.00,,,0.02,meteohub,2013-04-26 19:00:00,
2013-04-26 14:05:00,75.4,54.9,28.49,SE,135,12.0,17.0,49,0.00,,,0.02,meteohub,2013-04-26 19:05:00,
2013-04-26 14:10:00,74.7,55.4,28.48,SE,135,14.0,17.0,51,0.00,,,0.02,meteohub,2013-04-26 19:10:00,
2013-04-26 14:15:00,75.7,54.7,28.48,South,180,17.0,18.0,48,0.00,,,0.02,meteohub,2013-04-26 19:15:00,
2013-04-26 14:20:00,75.2,54.7,28.48,West,270,16.0,18.0,49,0.00,,,0.02,meteohub,2013-04-26 19:20:00,
2013-04-26 14:25:00,75.7,56.3,28.48,SE,135,13.0,18.0,51,0.00,,,0.02,meteohub,2013-04-26 19:25:00,
2013-04-26 14:30:00,77.0,55.2,28.47,South,180,15.0,17.0,47,0.00,,,0.02,meteohub,2013-04-26 19:30:00,
2013-04-26 14:35:00,76.3,55.2,28.47,SSE,158,15.0,16.0,48,0.00,,,0.02,meteohub,2013-04-26 19:35:00,
2013-04-26 14:40:00,76.1,55.6,28.46,SSE,158,10.0,18.0,49,0.00,,,0.02,meteohub,2013-04-26 19:40:00,
2013-04-26 14:45:00,75.9,55.9,28.46,SE,135,16.0,22.0,50,0.00,,,0.02,meteohub,2013-04-26 19:45:00,
2013-04-26 14:50:00,77.0,55.2,28.46,SE,135,13.0,22.0,47,0.00,,,0.02,meteohub,2013-04-26 19:50:00,
2013-04-26 14:55:00,77.4,55.6,28.46,SE,135,9.0,22.0,47,0.00,,,0.02,meteohub,2013-04-26 19:55:00,
2013-04-26 15:00:00,78.1,55.6,28.45,SE,135,15.0,16.0,46,0.00,,,0.02,meteohub,2013-04-26 20:00:00,
2013-04-26 15:05:00,78.3,55.2,28.45,SE,135,12.0,15.0,45,0.00,,,0.02,meteohub,2013-04-26 20:05:00,
2013-04-26 15:10:00,78.4,55.4,28.45,SE,135,12.0,15.0,45,0.00,,,0.02,meteohub,2013-04-26 20:10:00,
2013-04-26 15:15:00,79.0,55.8,28.45,SW,225,12.0,15.0,45,0.00,,,0.02,meteohub,2013-04-26 20:15:00,
2013-04-26 15:20:00,79.2,55.9,28.45,SE,135,11.0,20.0,45,0.00,,,0.02,meteohub,2013-04-26 20:20:00,
2013-04-26 15:25:00,79.3,56.1,28.44,SE,135,13.0,20.0,45,0.00,,,0.02,meteohub,2013-04-26 20:25:00,
2013-04-26 15:30:00,79.3,55.6,28.44,East,90,11.0,20.0,44,0.00,,,0.02,meteohub,2013-04-26 20:30:00,
2013-04-26 15:35:00,80.1,55.6,28.44,SE,135,16.0,16.0,43,0.00,,,0.02,meteohub,2013-04-26 20:35:00,
2013-04-26 15:40:00,79.7,54.5,28.43,SW,225,18.0,18.0,42,0.00,,,0.02,meteohub,2013-04-26 20:40:00,
2013-04-26 15:45:00,80.1,55.6,28.43,NW,315,11.0,18.0,43,0.00,,,0.02,meteohub,2013-04-26 20:45:00,
2013-04-26 15:50:00,80.1,55.6,28.43,East,90,15.0,18.0,43,0.00,,,0.02,meteohub,2013-04-26 20:50:00,
2013-04-26 15:55:00,80.4,55.2,28.43,South,180,11.0,18.0,42,0.00,,,0.02,meteohub,2013-04-26 20:55:00,
2013-04-26 16:00:00,80.8,55.6,28.42,SE,135,13.0,15.0,42,0.00,,,0.02,meteohub,2013-04-26 21:00:00,
2013-04-26 16:05:00,80.6,55.4,28.42,East,90,11.0,15.0,42,0.00,,,0.02,meteohub,2013-04-26 21:05:00,
2013-04-26 16:10:00,81.0,55.0,28.41,SE,135,14.0,14.0,41,0.00,,,0.02,meteohub,2013-04-26 21:10:00,
2013-04-26 16:15:00,80.6,55.4,28.41,SE,135,11.0,15.0,42,0.00,,,0.02,meteohub,2013-04-26 21:15:00,
2013-04-26 16:20:00,81.3,56.1,28.41,East,90,13.0,15.0,42,0.00,,,0.02,meteohub,2013-04-26 21:20:00,
2013-04-26 16:25:00,81.0,55.0,28.40,East,90,19.0,19.0,41,0.00,,,0.02,meteohub,2013-04-26 21:25:00,
2013-04-26 16:30:00,81.1,56.5,28.40,SE,135,10.0,19.0,43,0.00,,,0.02,meteohub,2013-04-26 21:30:00,
2013-04-26 16:35:00,81.1,55.9,28.39,East,90,18.0,19.0,42,0.00,,,0.02,meteohub,2013-04-26 21:35:00,
2013-04-26 16:40:00,81.7,55.8,28.39,SE,135,15.0,19.0,41,0.00,,,0.02,meteohub,2013-04-26 21:40:00,
2013-04-26 16:45:00,81.5,56.1,28.39,East,90,15.0,19.0,42,0.00,,,0.02,meteohub,2013-04-26 21:45:00,
2013-04-26 16:50:00,81.7,55.8,28.39,East,90,14.0,19.0,41,0.00,,,0.02,meteohub,2013-04-26 21:50:00,
2013-04-26 16:55:00,81.7,56.3,28.38,East,90,15.0,19.0,42,0.00,,,0.02,meteohub,2013-04-26 21:55:00,
2013-04-26 17:01:00,82.6,57.2,28.38,East,90,12.0,16.0,42,0.00,,,0.02,meteohub,2013-04-26 22:01:00,
2013-04-26 17:06:00,82.4,57.0,28.38,East,90,13.0,16.0,42,0.00,,,0.02,meteohub,2013-04-26 22:06:00,
2013-04-26 17:11:00,82.2,56.8,28.38,East,90,11.0,17.0,42,0.00,,,0.02,meteohub,2013-04-26 22:11:00,
2013-04-26 17:16:00,82.2,56.1,28.38,SE,135,15.0,18.0,41,0.00,,,0.02,meteohub,2013-04-26 22:16:00,
2013-04-26 17:21:00,82.9,57.6,28.37,East,90,11.0,18.0,42,0.00,,,0.02,meteohub,2013-04-26 22:21:00,
2013-04-26 17:26:00,82.9,57.6,28.37,East,90,11.0,18.0,42,0.00,,,0.02,meteohub,2013-04-26 22:26:00,
2013-04-26 17:31:00,82.9,56.8,28.37,SE,135,11.0,18.0,41,0.00,,,0.02,meteohub,2013-04-26 22:31:00,
2013-04-26 17:36:00,83.1,57.0,28.37,East,90,17.0,18.0,41,0.00,,,0.02,meteohub,2013-04-26 22:36:00,
2013-04-26 17:41:00,82.2,58.1,28.36,East,90,17.0,22.0,44,0.00,,,0.02,meteohub,2013-04-26 22:41:00,
2013-04-26 17:46:00,81.1,59.5,28.36,SE,135,26.0,26.0,48,0.00,,,0.02,meteohub,2013-04-26 22:46:00,
2013-04-26 17:51:00,80.6,60.3,28.37,East,90,20.0,26.0,50,0.00,,,0.02,meteohub,2013-04-26 22:51:00,
2013-04-26 17:56:00,80.1,60.8,28.37,East,90,26.0,26.0,52,0.00,,,0.02,meteohub,2013-04-26 22:56:00,
2013-04-26 18:01:00,78.1,61.2,28.36,East,90,18.0,26.0,56,0.00,,,0.02,meteohub,2013-04-26 23:01:00,
2013-04-26 18:06:00,77.4,61.9,28.36,East,90,16.0,26.0,59,0.00,,,0.02,meteohub,2013-04-26 23:06:00,
2013-04-26 18:11:00,77.4,61.9,28.36,East,90,15.0,26.0,59,0.00,,,0.02,meteohub,2013-04-26 23:11:00,
2013-04-26 18:16:00,77.4,61.3,28.37,East,90,13.0,23.0,58,0.00,,,0.02,meteohub,2013-04-26 23:16:00,
2013-04-26 18:21:00,77.4,61.9,28.37,East,90,22.0,23.0,59,0.00,,,0.02,meteohub,2013-04-26 23:21:00,
2013-04-26 18:26:00,77.5,61.5,28.37,East,90,11.0,22.0,58,0.00,,,0.02,meteohub,2013-04-26 23:26:00,
2013-04-26 18:31:00,77.9,61.9,28.37,East,90,15.0,22.0,58,0.00,,,0.02,meteohub,2013-04-26 23:31:00,
2013-04-26 18:36:00,77.5,61.5,28.37,East,90,12.0,22.0,58,0.00,,,0.02,meteohub,2013-04-26 23:36:00,
2013-04-26 18:41:00,77.7,61.7,28.37,East,90,16.0,20.0,58,0.00,,,0.02,meteohub,2013-04-26 23:41:00,
2013-04-26 18:46:00,77.7,62.2,28.37,ESE,113,17.0,20.0,59,0.00,,,0.02,meteohub,2013-04-26 23:46:00,
2013-04-26 18:51:00,77.0,62.1,28.37,East,90,22.0,22.0,60,0.00,,,0.02,meteohub,2013-04-26 23:51:00,
2013-04-26 19:05:00,76.6,62.2,28.37,NE,45,14.0,22.0,61,0.00,,,0.02,meteohub,2013-04-27 00:05:00,
2013-04-26 19:10:00,76.6,62.2,28.36,NE,45,15.0,19.0,61,0.00,,,0.00,meteohub,2013-04-27 00:10:00,
2013-04-26 19:15:00,76.3,62.2,28.35,East,90,17.0,21.0,62,0.00,,,0.00,meteohub,2013-04-27 00:15:00,
2013-04-26 19:20:00,75.9,61.9,28.36,East,90,20.0,23.0,62,0.00,,,0.00,meteohub,2013-04-27 00:20:00,
2013-04-26 19:25:00,75.7,61.9,28.36,East,90,18.0,23.0,62,0.00,,,0.00,meteohub,2013-04-27 00:25:00,
2013-04-26 19:30:00,75.6,62.1,28.36,East,90,10.0,23.0,63,0.00,,,0.00,meteohub,2013-04-27 00:30:00,
2013-04-26 19:35:00,75.6,62.6,28.36,East,90,15.0,21.0,64,0.00,,,0.00,meteohub,2013-04-27 00:35:00,
2013-04-26 19:40:00,75.2,62.2,28.36,East,90,18.0,21.0,64,0.00,,,0.00,meteohub,2013-04-27 00:40:00,
2013-04-26 19:45:00,74.8,62.2,28.36,East,90,12.0,21.0,65,0.00,,,0.00,meteohub,2013-04-27 00:45:00,
2013-04-26 19:50:00,74.7,62.6,28.36,East,90,13.0,21.0,66,0.00,,,0.00,meteohub,2013-04-27 00:50:00,
2013-04-26 19:55:00,74.1,62.4,28.35,East,90,17.0,21.0,67,0.00,,,0.00,meteohub,2013-04-27 00:55:00,
2013-04-26 20:00:00,73.8,62.6,28.35,East,90,11.0,17.0,68,0.00,,,0.00,meteohub,2013-04-27 01:00:00,
2013-04-26 20:06:00,73.2,62.1,28.36,East,90,7.0,17.0,68,0.00,,,0.00,meteohub,2013-04-27 01:06:00,
2013-04-26 20:11:00,73.4,62.6,28.36,East,90,13.0,17.0,69,0.00,,,0.00,meteohub,2013-04-27 01:11:00,
2013-04-26 20:16:00,73.0,62.2,28.37,East,90,11.0,16.0,69,0.00,,,0.00,meteohub,2013-04-27 01:16:00,
2013-04-26 20:21:00,72.9,62.4,28.38,East,90,17.0,17.0,70,0.00,,,0.00,meteohub,2013-04-27 01:21:00,
2013-04-26 20:26:00,72.7,62.2,28.38,NE,45,7.0,17.0,70,0.00,,,0.00,meteohub,2013-04-27 01:26:00,
2013-04-26 20:31:00,72.5,62.6,28.38,East,90,10.0,17.0,71,0.00,,,0.00,meteohub,2013-04-27 01:31:00,
2013-04-26 20:36:00,72.3,62.8,28.38,East,90,11.0,17.0,72,0.00,,,0.00,meteohub,2013-04-27 01:36:00,
2013-04-26 20:41:00,72.3,62.8,28.39,East,90,11.0,19.0,72,0.00,,,0.00,meteohub,2013-04-27 01:41:00,
2013-04-26 20:46:00,72.0,62.8,28.40,NE,45,9.0,19.0,73,0.00,,,0.00,meteohub,2013-04-27 01:46:00,
2013-04-26 20:51:00,71.6,63.0,28.40,North,0,12.0,19.0,74,0.00,,,0.00,meteohub,2013-04-27 01:51:00,
2013-04-26 20:56:00,71.4,62.2,28.42,NW,315,4.0,14.0,73,0.00,,,0.00,meteohub,2013-04-27 01:56:00,
2013-04-26 21:01:00,71.8,62.6,28.43,North,0,11.0,14.0,73,0.00,,,0.00,meteohub,2013-04-27 02:01:00,
2013-04-26 21:06:00,71.1,62.8,28.43,NE,45,11.0,12.0,75,0.00,,,0.00,meteohub,2013-04-27 02:06:00,
2013-04-26 21:11:00,71.1,62.8,28.43,NE,45,11.0,11.0,75,0.00,,,0.00,meteohub,2013-04-27 02:11:00,
2013-04-26 21:16:00,70.9,62.6,28.44,North,0,8.0,11.0,75,0.00,,,0.00,meteohub,2013-04-27 02:16:00,
2013-04-26 21:21:00,70.5,62.6,28.45,North,0,12.0,12.0,76,0.00,,,0.00,meteohub,2013-04-27 02:21:00,
2013-04-26 21:26:00,70.0,61.3,28.45,North,0,12.0,16.0,74,0.00,,,0.00,meteohub,2013-04-27 02:26:00,
2013-04-26 21:31:00,69.3,60.6,28.46,NW,315,13.0,17.0,74,0.00,,,0.00,meteohub,2013-04-27 02:31:00,
2013-04-26 21:36:00,68.5,59.9,28.47,NW,315,14.0,17.0,74,0.00,,,0.00,meteohub,2013-04-27 02:36:00,
2013-04-26 21:41:00,67.8,59.2,28.47,NE,45,15.0,17.0,74,0.00,,,0.00,meteohub,2013-04-27 02:41:00,
2013-04-26 21:46:00,67.3,58.3,28.47,North,0,13.0,17.0,73,0.00,,,0.00,meteohub,2013-04-27 02:46:00,
2013-04-26 21:51:00,66.7,57.7,28.47,North,0,16.0,19.0,73,0.00,,,0.00,meteohub,2013-04-27 02:51:00,
2013-04-26 21:56:00,65.8,57.4,28.48,North,0,9.0,19.0,74,0.00,,,0.00,meteohub,2013-04-27 02:56:00,
2013-04-26 22:01:00,65.5,57.4,28.48,NW,315,11.0,16.0,75,0.00,,,0.00,meteohub,2013-04-27 03:01:00,
2013-04-26 22:06:00,64.8,57.4,28.48,North,0,16.0,16.0,77,0.00,,,0.00,meteohub,2013-04-27 03:06:00,
2013-04-26 22:11:00,64.4,57.0,28.48,North,0,11.0,16.0,77,0.00,,,0.00,meteohub,2013-04-27 03:11:00,
2013-04-26 22:16:00,64.2,56.8,28.49,NE,45,17.0,21.0,77,0.00,,,0.00,meteohub,2013-04-27 03:16:00,
2013-04-26 22:21:00,63.5,56.1,28.48,NE,45,14.0,21.0,77,0.00,,,0.00,meteohub,2013-04-27 03:21:00,
2013-04-26 22:26:00,63.3,55.6,28.49,North,0,8.0,21.0,76,0.00,,,0.00,meteohub,2013-04-27 03:26:00,
2013-04-26 22:31:00,63.0,55.6,28.50,NW,315,8.0,17.0,77,0.00,,,0.00,meteohub,2013-04-27 03:31:00,
2013-04-26 22:36:00,62.2,55.2,28.51,NW,315,8.0,14.0,78,0.00,,,0.00,meteohub,2013-04-27 03:36:00,
2013-04-26 22:41:00,61.7,55.4,28.51,West,270,11.0,11.0,80,0.00,,,0.00,meteohub,2013-04-27 03:41:00,
2013-04-26 22:46:00,61.0,54.7,28.51,NW,315,11.0,11.0,80,0.00,,,0.00,meteohub,2013-04-27 03:46:00,
2013-04-26 22:51:00,60.6,54.7,28.52,NW,315,12.0,13.0,81,0.00,,,0.00,meteohub,2013-04-27 03:51:00,
2013-04-26 22:56:00,59.9,54.3,28.52,NW,315,11.0,14.0,82,0.00,,,0.00,meteohub,2013-04-27 03:56:00,
2013-04-26 23:01:00,59.7,54.5,28.52,West,270,8.0,19.0,83,0.00,,,0.00,meteohub,2013-04-27 04:01:00,
2013-04-26 23:06:00,59.7,55.2,28.52,West,270,11.0,19.0,85,0.00,,,0.00,meteohub,2013-04-27 04:06:00,
2013-04-26 23:11:00,59.5,55.4,28.52,NW,315,9.0,19.0,86,0.00,,,0.00,meteohub,2013-04-27 04:11:00,
2013-04-26 23:16:00,59.7,55.8,28.52,NNW,338,8.0,13.0,87,0.00,,,0.00,meteohub,2013-04-27 04:16:00,
2013-04-26 23:21:00,59.4,55.4,28.52,NW,315,8.0,12.0,87,0.00,,,0.00,meteohub,2013-04-27 04:21:00,
2013-04-26 23:26:00,59.5,55.6,28.52,NW,315,5.0,12.0,87,0.00,,,0.00,meteohub,2013-04-27 04:26:00,
2013-04-26 23:31:00,59.5,55.9,28.52,North,0,9.0,10.0,88,0.00,,,0.00,meteohub,2013-04-27 04:31:00,
2013-04-26 23:36:00,59.4,55.8,28.52,North,0,6.0,11.0,88,0.00,,,0.00,meteohub,2013-04-27 04:36:00,
2013-04-26 23:42:00,59.4,55.8,28.52,WNW,293,8.0,11.0,88,0.00,,,0.00,meteohub,2013-04-27 04:42:00,
2013-04-26 23:47:00,59.2,55.6,28.52,NW,315,7.0,11.0,88,0.00,,,0.00,meteohub,2013-04-27 04:47:00,
2013-04-26 23:52:00,59.0,55.4,28.53,NW,315,8.0,10.0,88,0.00,,,0.00,meteohub,2013-04-27 04:52:00,
2013-04-26 23:57:00,58.5,55.2,28.53,West,270,8.0,12.0,89,0.00,,,0.00,meteohub,2013-04-27 04:57:00,